Location: Franzen
(48.6167°N, 15.3833°E)
Time: 16:37:26
(UTC+00:00)

A-11 Canister half - Pass Details

Date: 30 July 2021
Orbit: 1515 x 1685 km, 47.2° (Epoch: 19 September)

Event Time Altitude Azimuth Distance (km) Brightness Sun altitude
Rises 13:33:31 0° 164° (SSE) 4,760 11.7 47.4°
Reaches altitude 10° 13:41:02 10° 126° (SE) 3,838 11.0 46.4°
Maximum altitude 13:42:05 10° 120° (ESE) 3,829 11.0 46.2°
Drops below altitude 10° 13:43:09 10° 113° (ESE) 3,855 10.9 46.1°
Sets 13:50:49 0° 76° (ENE) 4,898 11.2 45.0°
